Location: Madrid
(40.4000°N, 3.6830°W)
Time: 10:41:57
(UTC+02:00)

ISS - Pass Details

Date: 02 April 2020
Orbit: 417 x 419 km, 51.6° (Epoch: 31 May)

Event Time Altitude Azimuth Distance (km) Brightness Sun altitude
Rises 23:18:26 0° 300° (WNW) 2,362 1.3 -28.4°
Reaches altitude 10° 23:20:37 10° 291° (WNW) 1,494 -0.1 -28.8°
Enters shadow 23:21:28 16° 285° (WNW) 1,186 -0.8 -28.9°
